{"data":{"norad_id":59784,"intl_designator":"2024-093C","name":"STARLINK-31848","alt_names":[],"object_type":"PAYLOAD","status":"ACTIVE","operator":null,"country":"US","launch_date":"2024-05-18","launch_site_code":"AFETR","launch_vehicle":null,"mission":null,"orbit_class":"UNKNOWN","rcs_meters":null,"size_class":null,"mass_kg":null,"dimensions":null,"purposes":["comms"],"wikipedia_slug":null,"has_3d_model":false,"image_url":null,"decayed_at":null,"tle_current":{"epoch":"2026-05-24T09:27:06.300288Z","epoch_age_seconds":123530,"freshness":"FRESH","line1":"1 59784U 24093C   26144.39382292  .00001350  00000+0  58568-4 0  9990","line2":"2 59784  43.0013 137.8773 0001011 268.2517  91.8219 15.27591033114312","mean_motion":15.27591033,"eccentricity":0.0001011,"inclination_deg":43.0013,"raan_deg":137.8773,"arg_perigee_deg":268.2517,"mean_anomaly_deg":91.8219,"bstar":5.8568e-5,"rev_number":11431,"period_min":94.266067873678,"perigee_km":482.32239689308,"apogee_km":483.7097220417,"semimajor_km":6861.1530594674,"source":"CELESTRAK","updated_at":"2026-05-25T13:38:19.080416Z"}}}